#timestamp,LO_Frequency,Hit,StdDev 
1455429615.0,286046997.3,N
1455429615.9,286046997.3,N
1455429635.8,286046995.5,N
1455429655.6,286046993.4,N
1455429675.4,286046993.4,N
1455429695.2,286046998.0,N
1455429715.1,286046999.2,N
1455429716.0,286046999.2,N
1455429735.8,286046996.7,N
1455429755.6,286046995.8,N
1455429775.5,286046993.7,N
1455429795.3,286046994.4,N
1455429815.1,286046993.1,N
1455429835.9,286046993.9,N
1455429855.7,286046997.1,N
1455429875.5,286046997.3,N
1455429895.4,286047001.1,N
1455429915.2,286046998.2,N
1455429935.0,286046998.9,N
1455429935.9,286046998.9,N
1455429955.8,286046997.8,N
1455429975.6,286046997.7,N
1455429995.4,286046995.0,N
1455430015.3,286046999.6,N
1455430035.1,286046997.7,N
1455430036.0,286046997.7,N
1455430055.8,286046997.3,N
1455430075.6,286046997.0,N
1455430095.5,286046998.8,N
1455430115.3,286046999.1,N
1455430135.1,286046999.5,N
1455430155.9,286046999.2,N
1455430175.7,286046997.3,N
1455430195.5,286046996.0,N
1455430215.4,286046993.4,Y
1455430235.2,286046999.0,P
1455430255.0,286046998.8,N
1455430255.9,286046998.8,N
1455430275.8,286046998.7,N
1455430295.6,286046998.8,N
1455430315.4,286046999.3,N
1455430335.3,286047001.2,N
1455430355.1,286046998.4,N
1455430356.0,286046998.4,N
1455430375.8,286047000.0,N
1455430395.7,286047001.1,N
1455430415.5,286047002.7,N
1455430435.3,286047001.3,N
1455430455.2,286047003.9,N
1455430475.9,286047004.1,N
1455430495.7,286047001.9,N
1455430515.5,286047001.1,N
1455430535.4,286047000.2,N
1455430555.2,286047002.7,N
1455430575.0,286046999.0,N
1455430575.9,286046999.0,N
1455430595.8,286046998.2,N
1455430615.6,286046999.0,N
1455430635.4,286046997.1,N
1455430655.3,286046997.9,N
1455430675.1,286046997.1,N
1455430695.8,286046998.4,N
1455430715.7,286046998.2,N
1455430735.5,286046998.4,N
1455430755.3,286046999.1,N
1455430775.2,286047002.5,N
1455430795.9,286047003.7,N
1455430815.7,286047003.8,N
1455430835.6,286047002.9,N
1455430855.4,286047003.5,N
1455430875.2,286047006.0,N
1455430895.0,286047005.4,N
1455430895.9,286047005.4,N
1455430915.8,286047007.5,N
1455430935.6,286047007.4,N
1455430955.4,286047007.0,N
1455430975.3,286047010.2,Y
1455430995.1,286047008.0,P
1455431015.8,286047007.8,N
1455431035.7,286047007.5,N
1455431055.5,286047006.2,N
1455431075.3,286047008.6,Y
1455431095.2,286047001.5,P
1455431115.0,286047000.3,N
1455431115.9,286047000.3,N
1455431135.7,286047001.1,N
1455431155.6,286047002.7,N
1455431175.4,286047004.9,N
1455431195.2,286047003.6,N
1455431215.1,286046999.8,N
1455431216.0,286046999.8,N
1455431235.8,286047002.3,N
1455431255.6,286046998.6,N
1455431275.5,286046999.0,N
1455431295.3,286046998.4,N
1455431315.1,286046997.0,N
1455431335.9,286046997.7,N
1455431355.7,286046997.1,N
1455431375.5,286046997.7,N
1455431395.4,286046998.9,N
1455431415.2,286046998.1,N
1455431435.0,286047003.5,N
1455431435.9,286047003.5,N
1455431455.7,286047000.6,N
1455431475.6,286046997.8,N
1455431495.4,286046995.9,N
1455431515.2,286046996.7,N
1455431535.1,286046998.0,N
1455431536.0,286046998.0,N
1455431555.8,286046996.3,N
1455431575.6,286046997.0,N
1455431595.5,286046997.1,N
1455431615.3,286046997.9,N
1455431635.1,286046994.8,N
1455431655.9,286046990.1,Y
1455431675.7,286046988.7,P
1455431695.5,286046991.6,N
1455431715.4,286046991.4,N
1455431735.2,286046987.0,Y
1455431755.0,286046995.3,P
1455431755.9,286046995.3,P
1455431775.8,286046996.3,P
1455431795.6,286046995.5,Y
1455431815.4,286047002.3,P
1455431835.3,286047002.0,N
1455431855.1,286046999.9,N
1455431856.0,286046999.9,N
1455431875.8,286047003.6,N
1455431895.7,286047005.4,N
1455431915.5,286047004.3,N
1455431935.3,286047004.0,N
1455431955.2,286047003.4,N
1455431975.9,286047004.8,N
1455431995.7,286047008.5,N
1455432015.5,286047006.3,N
1455432035.4,286047008.0,N
1455432055.2,286047009.4,N
1455432075.0,286047010.6,N
1455432075.9,286047010.6,N
1455432095.8,286047007.0,N
1455432115.6,286047009.1,N
1455432135.4,286047009.3,N
1455432155.3,286047011.8,N
1455432175.1,286047013.0,Y
1455432195.8,286047007.7,P
1455432215.7,286047017.1,P
1455432235.5,286047016.4,P
1455432255.3,286047018.1,Y
1455432275.2,286047007.8,P
1455432295.9,286047011.5,P
1455432315.7,286047016.4,P
1455432335.6,286047018.2,Y
1455432355.4,286047006.4,P
1455432375.2,286047006.6,N
1455432395.1,286047006.9,N
1455432396.0,286047006.9,Y
1455432415.8,286047002.7,P
1455432435.6,286047003.2,N
1455432455.5,286046999.8,N
1455432475.3,286047000.7,N
1455432495.1,286046999.9,N
1455432515.9,286047005.9,N
1455432535.7,286047009.0,Y
1455432555.5,286047003.4,P
1455432575.4,286047006.6,P
1455432595.2,286047009.5,P
1455432615.0,286047008.2,Y
1455432615.9,286047008.2,P
1455432635.8,286046999.7,N
1455432655.6,286047003.1,N
1455432675.4,286047004.9,N
1455432695.3,286047007.2,N
1455432715.1,286047007.7,N
1455432716.0,286047007.7,N
1455432735.8,286047010.8,Y
1455432755.7,286046999.9,P
1455432775.5,286047000.8,N
1455432795.3,286047001.0,N
1455432815.2,286046998.4,N
1455432835.9,286046995.0,N
1455432855.7,286046996.3,N
1455432875.6,286046990.2,Y
1455432895.4,286046990.6,P
1455432915.2,286046991.4,N
1455432935.1,286046988.4,N
1455432936.0,286046988.4,N
1455432955.8,286046988.0,N
1455432975.6,286046987.8,Y
1455432995.5,286046992.8,P
1455433015.3,286046989.7,P
1455433035.1,286046987.6,P
1455433055.9,286046986.0,Y
1455433075.7,286046992.5,P
1455433095.5,286046992.6,P
1455433115.4,286046989.0,P
1455433135.2,286046989.8,Y
1455433155.0,286046999.6,P
1455433155.9,286046999.6,N
1455433175.8,286046996.3,N
1455433195.6,286046995.3,N
1455429615.3,286046995.2,N
1455429635.2,286046997.2,N
1455429655.0,286046995.5,N
1455429655.9,286046995.5,N
1455429675.7,286046992.5,N
1455429695.6,286046991.8,N
1455429715.4,286046996.3,N
1455429735.2,286046996.1,N
1455429755.1,286046992.1,N
1455429756.0,286046992.1,N
1455429775.8,286046990.5,N
1455429795.6,286046989.3,N
1455429815.5,286046986.9,N
1455429835.3,286046988.1,N
1455429855.1,286046985.9,N
1455429875.9,286046986.7,N
1455429895.7,286046987.9,N
1455429915.5,286046987.2,N
1455429935.3,286046985.7,N
1455429955.2,286046987.7,N
1455429975.0,286046987.3,N
1455429975.9,286046987.3,N
1455429995.7,286046987.1,N
1455430015.6,286046986.2,N
1455430035.4,286046987.6,N
1455430055.2,286046986.7,N
1455430075.1,286046985.1,Y
1455430076.0,286046985.1,P
1455430095.8,286046994.4,N
1455430115.6,286046994.7,N
1455430135.5,286046989.2,N
1455430155.3,286046990.2,N
1455430175.1,286046992.3,N
1455430195.9,286046992.9,N
1455430215.7,286046991.6,N
1455430235.5,286046991.6,Y
1455430255.4,286047000.4,P
1455430275.2,286046999.3,N
1455430295.0,286047000.0,N
1455430295.9,286047000.0,N
1455430315.8,286047000.1,N
1455430335.6,286046999.3,N
1455430355.4,286046996.9,N
1455430375.3,286046996.9,N
1455430395.1,286046995.3,N
1455430396.0,286046995.3,N
1455430415.8,286046992.7,N
1455430435.7,286046990.5,Y
1455430455.5,286046993.7,P
1455430475.3,286046992.4,P
1455430495.2,286046992.2,P
1455430515.9,286046993.4,Y
1455430535.7,286046998.2,P
1455430555.6,286046999.5,N
1455430575.4,286046998.4,N
1455430595.2,286046998.5,N
1455430615.0,286046998.6,N
1455430616.0,286046998.6,N
1455430635.8,286047000.7,N
1455430655.6,286047001.0,N
1455430675.4,286047000.7,N
1455430695.3,286047000.9,N
1455430715.1,286047002.7,N
1455430735.8,286047001.8,N
1455430755.7,286047001.5,N
1455430775.5,286047000.8,N
1455430795.3,286046999.9,N
1455430815.2,286047000.3,N
1455430835.9,286047005.6,N
1455430855.7,286047003.7,N
1455430875.6,286047005.9,N
1455430895.4,286047007.3,N
1455430915.2,286047006.7,N
1455430935.0,286047008.9,N
1455430935.9,286047008.9,N
1455430955.8,286047006.5,N
1455430975.6,286047005.3,N
1455430995.4,286047005.6,N
1455431015.3,286047005.3,N
1455431035.1,286047008.6,N
1455431055.8,286047007.2,N
1455431075.7,286047003.8,N
1455431095.5,286047005.8,N
1455431115.3,286047006.2,N
1455431135.2,286047009.2,N
1455431155.9,286047004.8,N
1455431175.7,286047002.0,N
1455431195.6,286046998.2,N
1455431215.4,286046999.9,N
1455431235.2,286046996.5,N
1455431255.0,286046999.2,N
1455431256.0,286046999.2,N
1455431275.8,286046997.1,N
1455431295.6,286046999.3,N
1455431315.4,286046997.5,N
1455431335.3,286046996.8,N
1455431355.1,286046993.3,N
1455431375.8,286046995.6,N
1455431395.7,286046996.0,N
1455431415.5,286046996.8,N
1455431435.3,286046997.6,N
1455431455.2,286046997.2,N
1455431475.9,286046997.0,N
1455431495.7,286046997.6,N
1455431515.6,286046995.4,N
1455431535.4,286046995.7,N
1455431555.2,286046999.1,N
1455431575.0,286046999.7,N
1455431576.0,286046999.7,N
1455431595.8,286047001.1,N
1455431615.6,286047001.2,N
1455431635.4,286046998.4,N
1455431655.3,286046999.0,N
1455431675.1,286046999.6,N
1455431695.8,286046997.8,N
1455431715.7,286046999.3,N
1455431735.5,286047000.5,N
1455431755.3,286047002.5,N
1455431775.2,286046998.2,N
1455431795.9,286047003.4,N
1455431815.7,286047005.4,N
1455431835.6,286047007.6,Y
1455431855.4,286047007.9,P
1455431875.2,286047008.9,N
1455431895.1,286047010.1,N
1455431896.0,286047010.1,N
1455431915.8,286047009.3,N
1455431935.6,286047012.3,Y
1455431955.5,286047000.8,P
1455431975.3,286046997.2,N
1455431995.1,286046994.9,N
1455432015.9,286046995.6,N
1455432035.7,286046994.5,N
1455432055.5,286046993.9,N
1455432075.3,286046992.3,N
1455432095.2,286046993.1,N
1455432115.0,286046989.6,N
1455432115.9,286046989.6,N
1455432135.7,286046987.0,N
1455432155.6,286046988.6,N
1455432175.4,286046991.2,N
1455432195.2,286046989.5,N
1455432215.1,286046989.5,N
1455432216.0,286046989.5,N
1455432235.8,286046987.7,N
1455432255.6,286046985.7,N
1455432275.5,286046988.4,N
1455432295.3,286046990.0,N
1455432315.1,286046986.7,N
1455432335.9,286046986.7,N
1455432355.7,286046986.3,N
1455432375.5,286046988.0,N
1455432395.4,286046986.9,N
1455432415.2,286046989.7,N
1455432435.0,286046985.5,N
1455432435.9,286046985.5,N
1455432455.8,286046984.7,Y
1455432475.6,286046990.2,P
1455432495.4,286046993.2,P
1455432515.3,286046992.5,P
1455432535.1,286046992.5,Y
1455432536.0,286046992.5,P
1455432555.8,286046996.8,P
1455432575.7,286047002.6,N
1455432595.5,286047000.6,N
1455432615.3,286046998.2,N
1455432635.2,286047000.7,N
1455432655.9,286046998.5,N
1455432675.7,286046997.4,N
1455432695.5,286046997.2,N
1455432715.4,286046994.9,N
1455432735.2,286046995.7,N
1455432755.0,286046996.4,N
1455432755.9,286046996.4,N
1455432775.8,286046993.1,N
1455432795.6,286046990.1,Y
1455432815.4,286046994.2,P
1455432835.3,286046992.3,P
1455432855.1,286046994.7,N
1455432856.0,286046994.7,Y
1455432875.8,286046995.5,P
1455432895.7,286046996.1,P
1455432915.5,286046997.5,P
1455432935.3,286046997.6,N
1455432955.2,286046997.5,N
1455432975.9,286046996.0,Y
1455432995.7,286046999.2,P
1455433015.6,286047000.4,N
1455433035.4,286047000.9,N
1455433055.2,286046998.3,N
1455433075.1,286047000.0,N
1455433076.0,286047000.0,N
1455433095.8,286046998.2,N
1455433115.6,286046999.4,N
1455433135.5,286046997.4,N
1455433155.3,286046995.5,Y
1455433175.1,286046998.9,P
1455433195.9,286047002.8,P
